Weather in Zaturtsy

Ukraine / Volyn Oblast     50°46′49″N   24°50′14″E
temp.,
°C
wind,
m/s
gust,
m/s
humid.,
%
clouds,
%
prec.,
mm/h
press.,
hPa
HPBL,
m
18 january, mon
mon1823:00−15nnw3795100 0.0 1021332
02:00−18nw379891 0.0 1022166
05:00−19nw369867 0.0 1022125
08:00−19nw359970 0.0 102395
11:00−16nw349470 0.0 1024263
14:00−14wnw348877 0.0 1023355
17:00−17w339523 0.0 102328
20:00−18w239421 0.0 102320
19 january, tue
tue1923:00−18w239046 0.0 102320
02:00−18wsw239427 0.0 102323
05:00−16ssw239674 0.0 102228
08:00−16ssw349478 0.0 102147
11:00−11s359278 0.0 1020188
14:00−6ssw479489 0.5 1018375
17:00−5ssw379798 0.4 1016213
20:00−5sw5109597 0.7 1016340
20 january, wed
wed2023:00−5ssw51088100 0.1 1015352
02:00−5ssw4995100 0.1 1013289
05:00−4s51095100 0.1 1012338
08:00−3s61196100 0.6 1011408
11:000ssw51098100 1.9 1011373
14:00+1sw51299100 2.5 1011418
17:00+2sw61393100 0.2 1011363
20:00+1sw61389100 0.2 1011360
21 january, thu
thu2123:000sw6158699 0.0 1012441
02:00+1sw6168679 0.0 1011438
05:00+1sw5168697 0.0 1011494
08:00+1sw5158698 0.0 1011408
11:00+2sw5139297 0.0 1011397
14:00+2ssw51110093 0.0 1011256
17:00+2s5129124 0.0 1010252
20:00+2s6148614 0.0 1009327
22 january, fri
fri2223:00+2ssw5158974 0.0 1008379
02:00+2ssw7168581 0.0 1007444
05:00+3ssw7168670 0.0 1006403
08:00+2ssw6148773 0.0 1006322
11:00+3ssw5149635 0.0 1006309
14:00+3s51310066 0.0 1005294
17:00+4s71592100 0.0 1003318
20:00+4s81789100 0.1 1002416